EHI
0 0 0 0 0 0 0 0 0 0 0 0 0 0 0 0 0 0 0 0 0 2 10 21 29 35 39 44 48 51 50 48 47 43 38 32 27 24 22 20 17 12 6 4 3 2 1 0 0
0 0 0 0 0 0 0 0 0 0 0 0 0 0 0 0 0 0 0 0 0 3 10 21 29 35 40 43 44 46 47 48 46 42 36 29 24 22 21 19 16 12 7 4 2 1 0 0 0
0 0 0 0 0 0 0 0 0 0 0 0 0 0 0 0 0 0 0 0 1 5 13 22 30 36 40 41 40 40 44 45 43 39 32 24 21 20 19 17 15 12 8 3 1 0 0 0 0
0 0 0 0 0 0 0 0 0 0 0 0 0 0 0 0 0 0 0 0 2 9 17 24 31 36 37 38 37 37 39 41 39 35 29 21 19 19 18 16 15 12 7 3 1 0 0 0 0
0 0 0 0 0 0 0 0 0 0 0 0 0 0 0 0 0 0 0 1 4 12 19 25 32 35 34 34 34 35 35 35 33 29 25 21 19 19 17 15 14 11 5 1 0 0 0 0 0
0 0 0 0 0 0 0 0 0 0 0 0 0 0 0 0 0 0 1 2 6 13 19 23 29 34 34 32 34 34 32 30 26 22 21 21 20 20 18 15 13 9 3 0 0 0 0 0 0
0 0 0 0 0 0 0 0 0 0 0 0 0 0 0 0 0 1 3 4 8 13 17 20 25 31 33 32 32 32 31 27 20 16 16 17 17 17 16 13 11 7 3 1 0 0 0 0 0
0 0 0 0 0 0 0 0 0 0 0 0 0 0 0 0 1 3 6 8 9 12 15 18 23 29 30 27 27 28 28 23 17 12 10 10 10 11 11 10 8 6 3 1 0 0 0 0 0
0 0 0 0 0 0 0 0 0 0 0 0 0 0 0 0 3 6 8 9 9 11 14 18 24 28 27 22 20 20 19 16 13 9 7 6 6 6 6 5 5 5 3 1 0 0 0 0 0
0 0 0 0 0 0 0 0 0 0 0 0 0 0 0 1 5 9 10 8 8 10 13 18 23 27 25 20 17 15 13 11 9 6 4 3 4 4 3 2 2 3 2 1 0 0 0 0 0
0 0 0 0 0 0 0 0 0 0 0 0 0 0 0 1 5 9 9 8 8 11 13 16 20 23 22 19 16 13 11 8 5 3 2 1 2 2 1 1 1 1 1 0 0 0 0 0 0
0 0 0 0 0 0 0 0 0 0 0 0 0 0 0 1 3 6 7 7 9 11 13 14 17 19 19 17 15 12 9 5 2 1 1 0 0 0 1 1 1 0 0 0 0 0 0 0 0
0 0 0 0 0 0 0 0 0 0 0 0 0 0 0 0 1 2 5 6 8 11 12 13 14 17 18 16 13 10 6 3 1 0 0 0 0 0 0 1 1 0 0 0 0 0 0 0 0
0 0 0 0 0 0 0 0 0 0 0 0 0 0 0 0 0 0 2 4 7 9 11 11 12 13 15 14 11 7 4 1 0 0 0 0 0 0 0 0 0 0 0 0 0 0 0 0 0
0 0 0 0 0 0 0 0 0 0 0 0 0 0 0 0 0 0 0 2 5 7 8 9 9 10 11 11 8 5 3 1 0 0 0 0 0 0 0 0 0 0 0 0 0 0 0 0 0
0 0 0 0 0 0 0 0 0 0 0 0 0 0 0 0 0 0 0 1 4 6 7 8 8 8 8 7 5 3 2 1 0 0 0 0 0 0 0 0 0 0 0 0 0 0 0 0 0
0 0 0 0 0 0 0 0 0 0 0 0 0 0 0 0 0 0 0 1 3 6 7 7 6 6 7 5 2 2 1 0 0 0 0 0 0 0 0 0 0 0 0 0 0 0 0 0 0
0 0 0 0 0 0 0 0 0 0 0 0 0 0 0 0 0 0 0 1 3 5 6 5 4 5 6 4 1 0 0 0 0 0 0 0 0 0 0 0 0 0 0 0 0 0 0 0 0
0 0 0 0 0 0 0 0 0 0 0 0 0 0 0 0 0 0 0 1 3 5 5 3 3 4 4 3 1 0 0 0 0 0 0 0 0 0 0 0 0 0 0 0 0 0 0 0 0
0 0 0 0 0 0 0 0 0 0 0 0 0 0 0 0 0 0 1 2 3 3 2 2 3 4 3 1 0 0 0 0 0 0 0 0 0 0 0 0 0 0 0 0 0 0 0 0 0
0 0 0 0 0 0 0 0 0 0 0 0 0 0 0 0 0 0 1 2 2 1 0 1 3 4 3 1 0 0 0 0 0 0 0 0 0 0 0 0 0 0 0 0 0 0 0 0 0
0 0 0 0 0 0 0 0 0 0 0 0 0 0 0 0 0 0 0 1 1 1 0 1 3 4 4 2 1 0 0 0 0 0 0 0 0 0 0 0 0 0 0 0 0 0 0 0 0
0 0 0 0 0 0 0 0 0 0 0 0 0 0 0 0 0 0 0 0 0 1 0 1 2 3 3 2 1 0 0 0 0 0 0 0 0 0 0 0 0 0 0 0 0 0 0 0 0
0 0 0 0 0 0 0 0 0 0 0 0 0 0 0 0 0 0 0 0 0 0 0 0 1 3 3 2 1 0 0 0 0 0 0 0 0 0 0 0 0 0 0 0 0 0 0 0 0
0 0 0 0 0 0 0 0 0 0 0 0 0 0 0 0 0 0 0 0 0 0 0 0 1 2 3 2 1 0 0 0 0 0 0 0 0 0 0 0 0 0 0 0 0 0 0 0 0
0 0 0 0 0 0 0 0 0 0 0 0 0 0 0 0 0 0 0 0 0 0 0 0 1 2 2 1 0 0 0 0 0 0 0 0 0 0 0 0 0 0 0 0 0 0 0 0 0
0 0 0 0 0 0 0 0 0 0 0 0 0 0 0 0 0 0 0 0 0 0 0 0 1 1 1 0 0 0 0 0 0 0 0 0 0 0 0 0 0 0 0 0 0 0 0 0 0
0 0 0 0 0 0 0 0 0 0 0 0 0 0 0 0 0 0 0 0 0 0 0 0 0 0 0 0 0 0 0 0 0 0 0 0 0 0 0 0 0 0 0 0 0 0 0 0 0
0 0 0 0 0 0 0 0 0 0 0 0 0 0 0 0 0 0 0 0 0 0 0 0 0 0 0 0 0 0 0 0 0 0 0 0 0 0 0 0 0 0 0 0 0 0 0 0 0
0 0 0 0 0 0 0 0 0 0 0 0 0 0 0 0 0 0 0 0 0 0 0 0 0 0 0 0 0 0 0 0 0 0 0 0 0 0 0 0 0 0 0 0 0 0 0 0 0
Wind_Speed
7 4 2 3 3 1 7 7 4 3 3 4 3 2 4 4 4 4 1 5 7 11 13 16 18 18 18 18 18 18 18 18 17 17 18 18 18 18 18 17 17 17 16 16 16 15 15 15 15
3 2 3 3 3 6 8 7 8 8 6 4 4 2 1 3 2 2 2 3 9 11 11 13 16 17 18 18 18 19 19 18 18 17 17 17 17 17 17 17 17 17 16 16 16 15 15 15 14
4 1 3 2 6 10 7 4 9 9 6 4 4 2 2 3 2 3 2 6 8 10 10 12 16 17 17 18 18 18 19 19 19 18 17 17 17 17 17 17 17 17 16 16 16 15 15 14 14
2 2 1 4 13 9 6 5 3 4 5 4 2 4 4 2 1 2 4 8 9 8 9 11 16 17 17 17 17 17 18 19 19 19 18 18 17 17 17 17 17 17 16 16 16 15 14 14 14
3 2 2 8 13 7 5 6 5 6 5 4 3 4 6 5 1 3 6 6 8 7 7 10 15 17 17 16 17 17 17 18 19 19 19 18 18 17 17 17 17 17 17 16 16 15 14 13 13
2 2 5 10 10 6 5 5 5 5 6 6 3 4 6 3 4 2 3 4 5 7 7 9 14 15 16 16 16 16 16 17 18 18 19 19 18 18 18 18 17 17 17 16 16 15 14 13 12
2 2 7 7 7 6 5 2 2 5 8 6 3 4 6 4 4 2 1 3 4 5 6 6 9 11 13 14 15 16 16 16 17 17 18 18 18 18 18 18 18 17 16 16 16 15 14 13 12
3 1 5 7 7 7 3 3 3 5 9 6 3 4 6 6 5 4 2 1 3 4 5 5 6 8 9 10 13 14 14 15 16 16 15 16 17 17 17 16 17 17 16 16 15 15 14 13 11
3 2 8 7 5 5 3 5 7 6 6 7 5 6 8 7 4 2 2 1 2 3 4 5 6 6 7 7 10 11 13 13 14 13 14 13 9 10 11 13 15 17 16 16 15 15 14 11 9
3 6 11 5 4 5 7 8 8 6 8 8 8 8 6 4 3 4 5 5 5 6 6 6 7 6 6 6 6 6 7 8 8 7 9 7 7 7 9 13 15 16 15 15 15 14 13 8 3
4 8 6 7 7 7 10 10 7 7 11 10 10 10 9 8 6 6 8 8 8 7 7 7 8 7 6 5 5 4 4 5 6 8 8 7 6 6 6 6 8 9 10 7 9 8 4 4 3
4 8 8 8 8 8 10 9 10 12 15 12 12 10 10 11 10 9 9 8 8 8 8 8 8 8 7 6 5 5 5 5 5 7 9 7 5 5 6 5 6 6 5 5 5 4 4 4 4
7 8 9 10 11 12 12 13 13 15 15 11 11 11 12 13 12 10 10 8 8 9 9 9 9 9 8 6 5 6 6 6 6 7 8 9 7 7 7 6 6 6 5 6 6 5 5 5 4
6 8 11 12 14 11 12 15 11 15 10 9 10 12 12 12 12 10 9 8 9 9 9 9 10 10 9 7 6 6 6 6 7 7 9 10 8 8 7 8 7 7 7 6 6 6 6 4 4
6 8 11 9 10 8 7 13 14 14 9 10 11 12 11 11 11 11 10 9 10 10 9 9 10 10 10 9 8 6 6 7 7 7 9 10 10 10 8 8 8 7 7 7 6 6 5 4 4
3 4 7 7 5 6 4 15 13 10 9 12 11 10 10 11 11 10 10 9 9 8 9 9 8 9 10 9 7 6 6 7 7 7 8 11 11 11 9 7 8 8 7 7 7 6 5 4 4
2 5 8 9 6 4 5 14 14 10 9 12 11 10 10 10 11 9 9 9 8 8 9 9 8 10 10 8 7 7 7 7 7 7 8 10 12 12 10 8 7 9 8 7 7 6 5 5 4
6 7 9 9 6 7 11 17 17 12 10 11 10 10 9 10 10 9 9 8 7 8 8 8 8 9 8 7 5 5 6 6 6 7 9 11 10 12 11 8 9 9 8 7 7 7 5 5 5
7 9 13 14 10 8 13 17 17 13 9 9 9 9 9 10 9 8 8 7 6 7 7 7 7 8 7 6 6 7 7 6 6 7 10 12 11 12 11 9 9 9 9 9 10 7 7 4 4
8 10 12 12 7 9 12 16 13 10 8 8 9 9 8 8 8 8 7 5 6 7 8 8 8 8 8 7 7 6 6 5 6 7 9 11 12 12 11 11 10 10 9 10 9 8 6 4 5
9 9 9 11 12 7 8 11 8 7 5 5 6 6 6 7 8 7 5 5 5 6 7 8 9 9 8 7 5 3 3 3 4 6 7 10 11 11 11 13 10 10 10 10 10 10 9 7 4
10 8 9 10 8 7 2 9 9 7 6 6 6 6 6 5 5 4 4 4 6 7 6 7 8 8 7 7 7 8 7 7 7 7 7 8 10 11 11 12 12 11 9 10 11 9 7 9 7
8 7 9 9 7 7 5 6 10 4 5 6 6 6 5 4 4 4 4 5 5 5 5 5 7 7 7 7 9 9 7 6 4 5 7 8 8 10 11 12 12 12 10 11 11 9 9 7 7
5 5 6 2 0 6 6 4 10 4 6 6 4 5 3 3 3 4 4 3 3 3 3 3 5 6 6 7 8 8 9 7 7 7 8 7 6 8 11 10 11 12 10 11 11 10 11 9 8
1 3 4 5 3 7 4 4 10 7 5 5 5 4 3 1 2 3 4 4 3 3 3 3 5 5 5 6 7 8 9 10 11 10 9 8 7 7 11 11 10 10 11 11 11 11 11 10 10
2 3 3 4 5 7 4 7 8 6 5 3 2 2 1 2 2 3 3 3 3 3 3 4 5 5 5 6 6 6 7 7 8 10 9 9 8 8 10 11 11 11 11 11 11 9 10 9 10
2 3 4 3 5 6 7 7 9 5 4 3 2 2 2 3 3 3 3 2 2 2 3 3 4 4 4 5 4 5 6 7 8 9 9 8 8 7 10 11 12 11 11 11 11 9 10 10 9
4 3 2 1 3 6 7 6 5 4 3 3 3 3 4 4 4 4 4 3 2 3 3 2 2 3 3 4 4 4 6 7 7 7 9 9 9 10 10 11 12 11 11 11 11 9 9 10 9
2 2 2 3 3 4 6 7 4 4 3 2 2 2 3 4 5 4 3 3 3 3 2 2 2 2 2 3 4 4 5 6 6 6 8 9 9 11 11 11 12 12 12 11 11 11 11 12 10
5 5 4 3 5 4 5 10 4 3 2 2 2 2 3 4 4 3 3 3 3 3 3 2 2 3 3 3 3 4 4 5 6 7 7 7 7 9 10 11 12 12 12 12 12 13 12 13 12
Wind_Direction
330 337 48 61 67 210 236 234 231 251 245 232 240 192 179 192 181 210 227 145 140 156 166 169 169 167 166 164 160 157 155 154 152 150 148 146 144 141 140 138 137 135 131 129 126 123 120 118 117
334 348 62 81 157 220 244 226 225 240 249 290 285 265 259 244 212 140 107 151 147 157 165 168 170 169 167 166 164 162 160 158 156 154 152 150 148 146 144 142 141 138 135 132 128 126 123 121 120
330 105 108 147 206 214 224 218 219 239 255 277 297 291 230 228 175 169 191 146 144 157 166 172 173 171 170 169 167 166 164 162 159 157 156 155 153 151 148 145 143 140 137 134 131 129 127 125 124
36 57 84 214 232 228 228 260 284 295 304 286 281 299 291 295 181 186 148 141 140 158 168 173 175 175 173 171 171 168 168 167 163 162 160 160 158 154 151 148 146 143 140 138 136 134 132 130 128
60 100 210 237 242 243 251 277 293 292 294 306 318 281 287 311 4 108 123 140 147 156 169 174 177 178 177 175 174 173 171 171 168 167 165 164 162 158 154 152 149 147 146 143 141 139 138 135 132
63 119 212 237 245 247 253 273 282 285 289 301 320 285 269 307 38 68 133 146 158 159 166 175 178 180 180 178 176 175 174 173 173 172 170 168 165 162 159 156 153 152 151 148 147 144 143 141 138
126 176 230 245 259 261 264 293 259 282 287 279 284 282 278 303 334 344 132 154 158 166 165 179 179 179 181 182 179 179 177 176 175 175 175 171 167 165 163 159 158 157 155 153 151 150 148 146 143
136 161 245 246 251 256 286 301 271 277 277 273 256 244 266 286 313 334 334 158 161 172 168 182 184 181 179 180 182 181 180 179 179 178 175 172 170 168 165 162 161 160 159 157 156 155 153 150 147
112 206 234 233 242 260 296 297 289 281 269 277 257 249 265 280 289 312 305 279 192 198 188 186 182 185 182 181 183 179 181 182 180 178 172 169 171 167 165 163 162 163 162 160 160 159 156 151 149
152 220 237 239 251 273 282 277 284 292 286 285 289 290 291 278 257 218 216 225 220 213 207 192 184 183 184 190 180 177 181 179 179 174 169 166 162 164 162 163 164 165 163 163 164 163 157 144 135
207 229 252 265 268 277 279 277 271 262 267 263 273 288 293 278 264 240 225 218 216 212 215 203 191 184 183 185 184 178 176 175 176 172 167 163 160 160 158 158 163 163 160 160 164 160 144 142 145
254 253 256 268 279 278 272 273 267 249 253 259 261 263 268 271 259 244 233 231 222 214 218 214 197 187 187 184 186 182 179 177 179 177 170 166 165 164 164 163 160 159 158 156 154 149 151 155 160
251 266 269 272 278 272 271 263 262 261 263 265 264 262 258 262 262 254 239 234 229 220 217 217 202 189 185 182 187 187 185 183 184 180 177 173 171 171 171 167 165 164 160 161 159 159 162 166 171
257 275 281 280 275 269 266 270 262 261 261 260 257 259 255 257 260 263 254 243 232 223 217 215 203 192 184 186 191 188 188 186 185 184 183 179 176 172 175 172 169 170 167 166 166 167 167 170 171
273 287 288 267 259 259 273 273 248 254 261 261 260 259 262 259 259 255 248 234 229 224 220 217 205 192 188 188 191 191 191 190 189 186 185 184 180 175 177 178 174 174 169 164 162 163 159 165 171
288 277 281 271 255 253 245 267 265 263 262 263 260 256 257 258 257 253 251 240 230 220 221 216 211 195 192 190 191 192 193 194 194 187 186 187 185 178 176 182 180 173 167 164 164 165 162 168 170
284 272 269 283 246 254 238 268 279 280 268 266 258 255 254 262 268 260 250 245 236 220 215 215 210 196 193 190 191 193 193 198 196 190 187 188 188 182 176 183 185 173 169 168 170 168 163 166 171
270 271 267 274 266 273 271 273 282 283 267 261 263 259 254 256 263 266 252 248 238 221 209 217 210 195 191 188 188 190 193 198 198 194 190 186 187 184 178 179 185 175 169 170 169 164 163 162 166
260 268 275 277 279 279 272 278 283 283 271 262 267 263 255 258 260 266 256 250 238 219 206 215 211 198 187 185 186 190 196 196 198 199 192 187 187 184 181 178 179 178 176 174 168 159 162 159 148
261 274 278 288 292 289 280 280 279 272 254 250 255 261 260 270 276 272 260 242 229 220 208 210 207 197 196 196 194 195 193 195 198 197 191 188 188 188 185 180 180 181 174 172 170 159 158 162 162
270 259 269 286 305 289 293 290 278 270 257 262 263 261 261 255 263 261 255 242 235 222 217 217 206 199 199 198 189 186 183 179 195 199 194 191 189 191 188 183 178 183 176 176 175 171 166 169 177
273 253 268 288 305 293 293 293 289 281 284 277 272 265 265 263 262 262 251 239 234 227 225 212 205 201 200 196 189 188 195 200 205 200 195 189 189 189 189 185 181 182 181 176 178 177 170 166 175
254 277 278 277 274 282 261 252 283 299 283 278 269 264 270 269 256 262 261 244 241 234 219 216 209 206 199 200 195 196 202 202 195 193 190 190 190 188 187 189 183 179 184 181 178 175 175 175 176
272 309 301 306 298 272 255 235 279 265 261 278 275 274 271 276 283 279 280 273 266 249 229 223 213 211 205 205 203 202 202 195 188 196 193 191 194 192 191 190 186 181 184 184 183 181 180 183 181
26 24 351 345 336 257 268 246 257 263 264 253 253 258 260 271 297 305 300 283 273 262 240 236 219 221 217 212 211 211 206 198 197 195 199 194 195 198 195 193 189 186 188 186 182 182 185 186 186
241 161 181 259 266 287 295 248 259 279 283 278 256 242 261 287 288 288 282 274 257 254 253 236 226 231 223 220 221 221 215 204 203 197 198 202 203 203 196 191 191 189 187 188 185 186 187 187 192
231 227 211 229 278 280 270 276 292 297 310 316 333 2 329 301 309 307 300 286 280 269 260 248 230 239 234 228 236 236 223 213 211 202 198 203 203 199 197 192 191 188 187 189 186 193 191 189 194
206 194 109 189 267 272 276 268 268 288 292 315 340 346 338 336 336 331 325 319 299 283 272 284 270 239 253 249 239 248 237 221 212 205 203 204 204 197 194 196 192 188 188 190 189 193 191 190 196
213 214 194 211 222 245 275 270 238 228 236 251 297 316 320 336 339 329 319 319 331 324 312 319 325 318 288 272 266 255 247 225 213 206 208 207 206 198 196 197 193 191 190 189 192 196 189 195 198
209 210 178 214 256 241 261 274 263 238 233 228 275 310 324 327 328 326 324 343 352 340 334 321 319 315 304 296 285 269 270 238 214 210 211 206 208 201 198 195 195 194 192 190 194 196 194 197 201